User: anonymous   Login
Location: Most
(50.5133°N, 13.6207°E)
Time: 03:44:25
(UTC+02:00)
Language:

UNHA 3 R/B - Orbit

View from above orbital plane
View from above orbital plane
View from above satellite
View from above satellite

Ground track
Ground track

The orbit data is extracted from the following two-line orbital elements,

1 41333U 16009B   20297.22420704 +.00002376 +00000-0 +61302-4 0  9995
2 41333 097.3558 023.9291 0037860 287.1130 072.5971 15.39505651264154
Epoch (UTC): 23 October 2020 05:22:51
Eccentricity: 0.0037860
inclination: 97.3558°
perigee height: 422 km
apogee height: 473 km
right ascension of ascending node: 23.9291°
argument of perigee: 287.1130°
revolutions per day: 15.39505651
mean anomaly at epoch: 72.5971°
orbit number at epoch: 26415

The dashed part of the orbit path shows where the satellite is in the earth's shadow,  

DLR